Scottsdale, AZ

5:56 PM MST on June 21, 2018 (GMT -0700)
Scottsdale

Weather History for KSDL - June, 2018

Change the Weather History Date:

Wednesday, June 13, 2018

  Actual Average Record
Temperature  
Mean Temperature 94 °F -  
Max Temperature 107 °F 98 °F 107 °F (2018)
Min Temperature 82 °F 72 °F 64 °F (2017)
Cooling Degree Days 30    
Growing Degree Days 44 (Base 50)    
Moisture  
Dew Point 35 °F    
Average Humidity 13    
Maximum Humidity 22    
Minimum Humidity 7    
Precipitation  
Precipitation 0.00 in - - ()
Sea Level Pressure  
Sea Level Pressure 29.69 in    
Wind  
Wind Speed 3 mph (WSW)    
Max Wind Speed 10 mph    
Max Gust Speed 17 mph    
Visibility 10 miles    
Events      
Averages and records for this station are not official NWS values.
T = Trace of Precipitation, MM = Missing Value Source: NWS Daily Summary

Daily Weather History Graph

Daily Weather History Graph

Search for Another Location

Airport or City:

Astronomy

Jun. 13, 2018 Rise Set
Actual Time 5:16 AM MST 7:38 PM MST
Civil Twilight 4:47 AM MST 8:07 PM MST
Nautical Twilight 4:12 AM MST 8:43 PM MST
Astronomical Twilight 3:33 AM MST 9:22 PM MST
Moon 5:18 AM MST (6/13) 7:41 PM MST (6/13)
Length of Visible Light 15h 19m
Length of Day
14h 21m
Waning Crescent, 0% of the Moon is Illuminated
Jun 13
Waning Crescent
Jun 13
New
Jun 20
First Quarter
Jun 27
Full
Jul 6
Last Quarter

Hourly Weather History & Observations

Time (MST) Temp. Dew Point Humidity Pressure Visibility Wind Dir Wind Speed Gust Speed Precip Events Conditions
12:53 AM 88.0 °F 27.0 °F 11% 29.68 in 10.0 mi Calm Calm - N/A   Clear
1:53 AM 84.9 °F 36.0 °F 17% 29.68 in 10.0 mi Calm Calm - N/A   Clear
2:53 AM 84.9 °F 37.0 °F 18% 29.66 in 10.0 mi Calm Calm - N/A   Clear
3:53 AM 86.0 °F 34.0 °F 16% 29.67 in 10.0 mi Calm Calm - N/A   Clear
4:53 AM 82.9 °F 37.0 °F 19% 29.67 in 10.0 mi Calm Calm - N/A   Clear
5:53 AM 84.0 °F 37.0 °F 19% 29.69 in 10.0 mi Calm Calm - N/A   Clear
6:53 AM 88.0 °F 36.0 °F 16% 29.71 in 10.0 mi NE 3.5 mph - N/A   Clear
7:53 AM 88.0 °F 44.1 °F 22% 29.73 in 10.0 mi Calm Calm - N/A   Clear
8:53 AM 91.0 °F 41.0 °F 17% 29.75 in 10.0 mi SSE 3.5 mph - N/A   Clear
9:53 AM 97.0 °F 35.1 °F 11% 29.75 in 10.0 mi SSE 3.5 mph - N/A   Clear
10:53 AM 99.0 °F 32.0 °F 10% 29.75 in 10.0 mi South 4.6 mph - N/A   Clear
11:53 AM 102.0 °F 28.9 °F 8% 29.74 in 10.0 mi South 5.8 mph - N/A   Clear
12:53 PM 102.9 °F 30.9 °F 8% 29.73 in 10.0 mi Variable 3.5 mph - N/A   Clear
1:53 PM 107.1 °F 33.1 °F 8% 29.72 in 10.0 mi WSW 10.4 mph 17.3 mph N/A   Clear
2:53 PM 107.1 °F 28.9 °F 7% 29.70 in 10.0 mi WNW 8.1 mph - N/A   Clear
3:53 PM 107.1 °F 30.9 °F 7% 29.68 in 10.0 mi NNW 9.2 mph - N/A   Clear
4:53 PM 107.1 °F 33.1 °F 8% 29.66 in 10.0 mi West 9.2 mph - N/A   Clear
5:53 PM 106.0 °F 35.1 °F 9% 29.64 in 10.0 mi West 8.1 mph - N/A   Clear
6:53 PM 105.1 °F 37.0 °F 10% 29.63 in 10.0 mi WNW 6.9 mph - N/A   Clear
7:53 PM 102.9 °F 37.0 °F 10% 29.64 in 10.0 mi Calm Calm - N/A   Clear
8:53 PM 100.9 °F 36.0 °F 11% 29.64 in 10.0 mi Calm Calm - N/A   Clear
9:53 PM 99.0 °F 37.0 °F 12% 29.65 in 10.0 mi North 6.9 mph - N/A   Clear
10:53 PM 93.0 °F 42.1 °F 17% 29.65 in 10.0 mi South 3.5 mph - N/A   Clear
11:53 PM 95.0 °F 39.9 °F 15% 29.64 in 10.0 mi North 5.8 mph - N/A   Clear